This is the latest recevied weather packets stored in our database for station/object W2TAO. If no packets are shown the sender has not sent any weather packets the latest 10 day(s).
| Time | Temp. | Humidity | Pressure | Rain* | Wind** | Luminosity | Snow |
|---|---|---|---|---|---|---|---|
| 1778095125 | 14.44° C | 99% | 1008 hPa | 0 mm | - | 49 W/m² | - |
| 1778094821 | 15° C | 99% | 1008.1 hPa | 0 mm | - | 82 W/m² | - |
| 1778094518 | 15° C | 99% | 1007.8 hPa | 0 mm | - | 112 W/m² | - |
| 1778094214 | 15° C | 99% | 1008.2 hPa | 0 mm | - | 123 W/m² | - |
| 1778093911 | 15° C | 99% | 1008.2 hPa | 0 mm | - | 137 W/m² | - |
| 1778093608 | 15° C | 99% | 1008.2 hPa | 0 mm | - | 134 W/m² | - |
| 1778093305 | 15° C | 99% | 1008.3 hPa | 0 mm | - | 173 W/m² | - |
| 1778093002 | 15° C | 99% | 1008.2 hPa | 0 mm | - | 136 W/m² | - |
| 1778092700 | 15° C | 99% | 1008.4 hPa | 0 mm | - | 140 W/m² | - |
| 1778092394 | 15° C | 99% | 1008.4 hPa | 0 mm | - | 177 W/m² | - |
| 1778092092 | 14.44° C | 99% | 1008.5 hPa | 0.51 mm | - | 135 W/m² | - |
| 1778091789 | 14.44° C | 99% | 1008.5 hPa | 0.51 mm | - | 100 W/m² | - |
| 1778091487 | 14.44° C | 99% | 1008.6 hPa | 0.51 mm | - | 97 W/m² | - |
| 1778091185 | 14.44° C | 99% | 1008.6 hPa | 0 mm | - | 61 W/m² | - |
| 1778090881 | 14.44° C | 99% | 1008.7 hPa | 0 mm | - | 69 W/m² | - |
| 1778090577 | 14.44° C | 99% | 1008.6 hPa | 0 mm | - | 51 W/m² | - |
| 1778090274 | 14.44° C | 99% | 1008.6 hPa | 0 mm | - | 61 W/m² | - |
| 1778089971 | 14.44° C | 99% | 1008.8 hPa | 0 mm | - | 54 W/m² | - |
| 1778089668 | 14.44° C | 99% | 1008.8 hPa | 0 mm | - | 44 W/m² | - |
| 1778089365 | 14.44° C | 99% | 1008.5 hPa | 0 mm | - | 56 W/m² | - |
| 1778089063 | 14.44° C | 99% | 1008.6 hPa | 0.51 mm | - | 57 W/m² | - |
| 1778088759 | 14.44° C | 99% | 1008.6 hPa | 0.51 mm | - | 69 W/m² | - |
| 1778088456 | 14.44° C | 99% | 1008.9 hPa | 0 mm | - | 68 W/m² | - |
| 1778088153 | 14.44° C | 99% | 1008.6 hPa | 0.51 mm | - | 78 W/m² | - |
| 1778087851 | 14.44° C | 99% | 1008.8 hPa | 1.27 mm | - | 39 W/m² | - |
* Rain latest hour (hover to see other rain measurements)
** Current wind speed in m/s (hover to see current wind gust speed)